Location: Campolattaro
(41.2833°N, 14.7333°E)
Time: 00:27:30
(UTC+00:00)

CZ-4B R/B - Pass Details

Date: 19 May 2025
Orbit: 449 x 582 km, 97.8° (Epoch: 22 June)

Event Time Altitude Azimuth Distance (km) Brightness Sun altitude
Exits shadow 18:41:49 - 142° (SE) 2,363 5.4 -4.9°
Reaches altitude 10° 18:43:04 10° 137° (SE) 1,875 4.9 -5.1°
Maximum altitude 18:46:46 35° 71° (ENE) 929 3.7 -5.7°
Drops below altitude 10° 18:50:23 10° 6° (N) 1,834 5.9 -6.2°
Sets 18:52:36 0° 357° (N) 2,710 6.9 -6.6°
